Вернуться в каталог

FENGYUN 1C DEB

LostSSO
NORAD 37401·DEBRIS·🇨🇳 China

Запущен May 10, 1999 с Taiyuan Satellite Launch Center

Loading…

Ближайшие Пролёты (ближайшие 24 часа)

TLE

УстаревшееSource: Space-Track

Эпоха: Jul 26, 2022, 08:15 UTC

1 37401U 99025EFT 22207.34439524  .00000417  00000-0  15366-3 0  9993
2 37401  98.5447 247.4398 0176673 271.1231  86.9716 14.29687714677813

Отслеживайте FENGYUN 1C DEB в реальном времени с AllMySat

Download on the App Store